Location: Ch�risy
(50.2331°N, 2.9131°E)
Time: 01:52:07
(UTC+00:00)

Okean-O - Pass Details

Date: 17 January 2021
Orbit: 638 x 641 km, 98.2° (Epoch: 24 February)

Event Time Altitude Azimuth Distance (km) Brightness Sun altitude
Rises 16:58:42 0° 121° (ESE) 2,942 5.7 -6.6°
Reaches altitude 10° 17:01:26 10° 103° (ESE) 2,037 4.7 -7.0°
Maximum altitude 17:04:31 19° 59° (ENE) 1,538 4.0 -7.5°
Drops below altitude 10° 17:07:37 10° 15° (NNE) 2,047 4.9 -7.9°
Sets 17:10:21 0° 358° (N) 2,961 5.8 -8.4°
